Weather History for KSHN - December, 2012

Change the Weather History Date:

Tuesday, December 25, 2012

  Actual Average Record
Temperature  
Mean Temperature 34 °F -  
Max Temperature 36 °F 43 °F 59 °F (1980)
Min Temperature 32 °F 34 °F 20 °F (1962)
Degree Days  
Heating Degree Days 31    
Moisture  
Dew Point 34 °F    
Average Humidity 97    
Maximum Humidity 100    
Minimum Humidity 93    
Precipitation  
Precipitation 1.01 in - - ()
Sea Level Pressure  
Sea Level Pressure 29.73 in    
Wind  
Wind Speed 4 mph (NNE)    
Max Wind Speed 15 mph    
Max Gust Speed 18 mph    
Visibility 8 miles    
Events Rain , Snow    
Averages and records for this station are not official NWS values.
T = Trace of Precipitation, MM = Missing Value Source: NWS Daily Summary

Daily Weather History Graph

Daily Weather History Graph

Search for Another Location

Airport or City:

Trip Planner

Search our weather history database for the weather conditions in past years. The results will help you decide how hot, cold, wet, or windy it might be!

Date:

Astronomy

Dec. 25, 2012 Rise Set
Actual Time 7:58 AM PST 4:27 PM PST
Civil Twilight 7:22 AM PST 5:03 PM PST
Nautical Twilight 6:43 AM PST 5:42 PM PST
Astronomical Twilight 6:06 AM PST 6:19 PM PST
Moon 2:42 PM PST (12/25) 5:32 AM PST (12/25)
Length of Visible Light 9h 40m
Length of Day
8h 29m
Waxing Gibbous, 94% of the Moon is Illuminated
Dec 25
Waxing Gibbous
Dec 28
Full
Jan 4
Last Quarter
Jan 11
New
Jan 18
First Quarter

Hourly Weather History & Observations

Time (PST) Temp. Windchill Dew Point Humidity Pressure Visibility Wind Dir Wind Speed Gust Speed Precip Events Conditions
12:53 AM 36.0 °F - 35.1 °F 97% 30.01 in 10.0 mi Calm Calm - N/A   Overcast
1:53 AM 36.0 °F - 35.1 °F 97% 29.98 in 10.0 mi Calm Calm - N/A   Overcast
2:53 AM 35.1 °F - 35.1 °F 100% 29.95 in 10.0 mi Calm Calm - N/A   Overcast
3:53 AM 36.0 °F 32.1 °F 35.1 °F 97% 29.91 in 10.0 mi North 4.6 mph - 0.00 in Rain Light Rain
4:18 AM 35.6 °F 31.7 °F 35.6 °F 100% 29.87 in 10.0 mi North 4.6 mph - 0.00 in Rain Light Rain
4:53 AM 36.0 °F 33.3 °F 35.1 °F 97% 29.86 in 10.0 mi NE 3.5 mph - 0.03 in Rain Light Rain
5:46 AM 35.6 °F - 35.6 °F 100% 29.82 in 10.0 mi Calm Calm - 0.05 in Rain Rain
5:53 AM 36.0 °F - 35.1 °F 97% 29.83 in 10.0 mi Calm Calm - 0.07 in Rain Rain
6:12 AM 33.8 °F 30.8 °F 33.8 °F 100% 29.79 in 9.0 mi NE 3.5 mph - 0.06 in Snow Light Snow
6:39 AM 33.8 °F 29.6 °F 32.0 °F 93% 29.77 in 3.0 mi ENE 4.6 mph - 0.12 in Snow Light Snow
6:53 AM 33.1 °F 26.1 °F 32.0 °F 96% 29.78 in 4.0 mi NE 8.1 mph - 0.16 in Snow Light Snow
7:06 AM 33.8 °F 29.6 °F 32.0 °F 93% 29.76 in 3.0 mi ENE 4.6 mph - 0.03 in Snow Light Snow
7:27 AM 32.0 °F 27.5 °F 32.0 °F 100% 29.74 in 2.5 mi NE 4.6 mph - 0.08 in Snow Light Snow
7:53 AM 33.1 °F 26.9 °F 32.0 °F 96% 29.74 in 2.5 mi NE 6.9 mph - 0.18 in Snow Light Snow
8:12 AM 32.0 °F 28.7 °F 32.0 °F 100% 29.72 in 3.0 mi NE 3.5 mph - 0.05 in Snow Light Snow
8:48 AM 33.8 °F 27.0 °F 32.0 °F 93% 29.71 in 2.5 mi NNE 8.1 mph - 0.13 in Snow Light Snow
8:53 AM 33.1 °F 26.9 °F 32.0 °F 96% 29.72 in 2.5 mi NNE 6.9 mph - 0.14 in Snow Light Snow
9:09 AM 33.8 °F 27.0 °F 32.0 °F 93% 29.70 in 3.0 mi North 8.1 mph - 0.03 in Snow Light Snow
9:18 AM 33.8 °F 26.4 °F 32.0 °F 93% 29.69 in 3.0 mi North 9.2 mph - 0.05 in Snow Light Snow
9:53 AM 33.1 °F 26.9 °F 32.0 °F 96% 29.71 in 4.0 mi NNE 6.9 mph - 0.09 in Snow Light Snow
10:53 AM 33.1 °F 26.1 °F 32.0 °F 96% 29.69 in 4.0 mi NNE 8.1 mph - 0.08 in Snow Light Snow
11:28 AM 33.8 °F 25.8 °F 32.0 °F 93% 29.67 in 5.0 mi North 10.4 mph - 0.05 in Snow Light Snow
11:53 AM 33.1 °F 25.5 °F 32.0 °F 96% 29.68 in 8.0 mi North 9.2 mph - 0.08 in Snow Light Snow
12:53 PM 33.1 °F 26.9 °F 33.1 °F 100% 29.67 in 10.0 mi North 6.9 mph - 0.05 in   Overcast
1:53 PM 34.0 °F 26.0 °F 33.1 °F 96% 29.67 in 10.0 mi North 10.4 mph - 0.04 in Rain Light Rain
2:53 PM 34.0 °F 29.8 °F 33.1 °F 96% 29.66 in 10.0 mi North 4.6 mph - 0.02 in   Overcast
3:46 PM 33.8 °F 30.8 °F 33.8 °F 100% 29.64 in 10.0 mi North 3.5 mph - 0.00 in Rain Light Rain
3:53 PM 34.0 °F 28.8 °F 33.1 °F 96% 29.66 in 10.0 mi NNE 5.8 mph - 0.00 in   Overcast
4:53 PM 34.0 °F 28.0 °F 34.0 °F 100% 29.66 in 10.0 mi Variable 6.9 mph - N/A   Overcast
5:00 PM 35.6 °F 26.2 °F 33.8 °F 93% 29.64 in 10.0 mi NNE 15.0 mph 18.4 mph N/A   Overcast
5:53 PM 36.0 °F 29.6 °F 34.0 °F 93% 29.65 in 10.0 mi NE 8.1 mph - N/A   Overcast
6:53 PM 35.1 °F - 34.0 °F 96% 29.66 in 10.0 mi Calm Calm - 0.02 in Rain Light Rain
7:40 PM 35.6 °F - 35.6 °F 100% 29.64 in 10.0 mi Calm Calm - 0.00 in   Overcast
7:53 PM 35.1 °F 32.2 °F 34.0 °F 96% 29.67 in 10.0 mi NNW 3.5 mph - 0.01 in Rain Light Rain
8:03 PM 35.6 °F 31.7 °F 33.8 °F 93% 29.65 in 10.0 mi NNW 4.6 mph - 0.00 in Rain Light Rain
8:10 PM 35.6 °F 32.8 °F 35.6 °F 100% 29.65 in 10.0 mi North 3.5 mph - 0.00 in Rain Light Rain
8:24 PM 35.6 °F 30.7 °F 35.6 °F 100% 29.65 in 10.0 mi North 5.8 mph - 0.01 in Rain Light Rain
8:53 PM 36.0 °F - 35.1 °F 97% 29.67 in 10.0 mi Calm Calm - 0.02 in Rain Light Rain
9:31 PM 35.6 °F - 35.6 °F 100% 29.66 in 10.0 mi Calm Calm - 0.01 in   Overcast
9:53 PM 36.0 °F - 35.1 °F 97% 29.68 in 10.0 mi Calm Calm - 0.01 in   Overcast
10:30 PM 35.6 °F - 35.6 °F 100% 29.67 in 10.0 mi Calm Calm - N/A   Overcast
10:48 PM 33.8 °F - 33.8 °F 100% 29.68 in 10.0 mi Calm Calm - 0.00 in Rain Light Rain
10:53 PM 34.0 °F - 34.0 °F 100% 29.70 in 10.0 mi Calm Calm - 0.00 in Rain Light Rain
11:22 PM 35.6 °F - 35.6 °F 100% 29.67 in 10.0 mi Calm Calm - 0.01 in Rain Light Rain
11:53 PM 34.0 °F - 34.0 °F 100% 29.70 in 8.0 mi Calm Calm - 0.01 in   Overcast